STARLINK-11259, 60721

Orbit data source: Space-Track

STARLINK-11259, 60721 is a payload satellite owned by SpaceX/Seattle (US) in LEO that was launched on Wed, 28 Aug 2024 UTC via an FALCON 9 launch vehicle from the Air Force Eastern Test Range (AFETR). Payload-class satellites include a variety of spacecraft equipped with specific instruments for various scientific and technological missions. These include communications satellites like Starlink; space stations such as the ISS; scientific satellites like the Hubble; Earth observation satellites from companies like Planet Labs, Umbra, and HawkEye 360; GPS; miniature CubeSats for education and research; and military/defense satellites.

Loading next visibility...
Identifier
60721, 2024-152B
Orbit
LEO
Country
Flag of USUS
Related business
Manufacturer
SpaceX/Seattle
Mission
Operational Commercial Communications
Bus & Motor
STARLINK V2MD, Unknown motor
Mass
960 kg wet, ~910 kg dry
Launch date (UTC)
2024-08-28 (1 year ago)
Launch vehicle
FALCON 9
Launch site
Air Force Eastern Test Range (AFETR)
Object type
Payload
Rocket body
Debris
Shape & HBR
Box + 2 Pan, 18.1 m
Radar Cross Section
36.964 m², Large (>1 m²)

Expand to show TLE details & history
Last TLE update: 13 hours ago

TLE from 13 hours ago
0 STARLINK-11259
1 60721U 24152B   25294.71298942  .00000201  00000-0  65136-5 0  9993
2 60721  53.1588  81.6263 0000413  87.2704 272.8361 15.69693513 67000
Epoch: 2025-10-21T17:06Z
TLE epoch observation values (Epoch: 2025-10-21T17:06:42.285Z)
Latitude
-0.00006°
Longitude
154.55307°
Altitude
360.675 km
Speed
7.694 km/s
True Right ascension
05h 26m 30s
True Declination
0° 00' 00"
Sunlit
Object was in full shadow at epoch
Visualization orbit readout
Latitude
Unknown
Longitude
Unknown
Altitude
Unknown
Speed
Unknown
Apparent Right ascension
Unknown
Apparent Declination
Unknown
Sunlit
N/A
Visualization observer readout
Local Sidereal Time
00:48:51
Azimuth
Unknown
Elevation
Unknown
Doppler factor
Unknown
Orbital elements
Apogee altitude
360.313 km
Perigee altitude
359.757 km
Semi-major axis
6,738.172 km
Eccentricity
0.00004
Inclination
53.1588°
RAAN
81.6263°
Arg. of periapsis
87.2704°
True anomaly
272.83137°
Mean anomaly
272.8361°
Eccentric anomaly
272.83374°
Mean motion
3.92401 °/min
Orbital period
91.74 mins
BSTAR
0.0000065136
Loading maneuver chart data...
Computing Atmospheric mass density...
Loading historical data...
Loading historical data...
Loading historical data...
Loading historical data...
Loading historical data...
Loading historical data...
Loading historical data...

Documentation

Showing up to 5 results
|